When you browse on this site, cookies collect data to enhance your experience and personalize the content and advertising you see.
Visit our Privacy Policy to learn more. By continuing to use the site, you agree to this use of cookies and data.
  • In Österreich
  • Länderverzeichnis
  • Für 7 Tage
  • Wassertemperatur
  • Wetterkarte
  • News
  • Widgets
  • user-avatar
    Anmelden

    Stündliche Wetter Braga

    Heute, 3 April, Freitag

    Zeit Temperatur Niederschläge Wind Luftdruck Luftfeuchtigkeit
    00:00 +10°C° 0 mm 1 m/S 750 mmHg 87%
    01:00 +10°C° 0 mm 1 m/S 750 mmHg 88%
    02:00 +10°C° 0 mm 1 m/S 750 mmHg 88%
    03:00 +10°C° 0 mm 1 m/S 750 mmHg 89%
    04:00 +10°C° 0 mm 1 m/S 750 mmHg 89%
    05:00 +9°C° 0 mm 1 m/S 750 mmHg 90%
    06:00 +11°C° 0 mm 1 m/S 750 mmHg 82%
    07:00 +13°C° 0 mm 1 m/S 750 mmHg 75%
    08:00 +15°C° 0 mm 1 m/S 750 mmHg 67%
    09:00 +18°C° 0 mm 1 m/S 750 mmHg 61%
    10:00 +19°C° 0 mm 2 m/S 750 mmHg 54%
    11:00 +20°C° 0 mm 2 m/S 750 mmHg 48%
    12:00 +21°C° 0 mm 2 m/S 749 mmHg 47%
    13:00 +21°C° 0 mm 2 m/S 749 mmHg 46%
    14:00 +21°C° 0 mm 2 m/S 749 mmHg 45%
    15:00 +21°C° 0 mm 1 m/S 748 mmHg 51%
    16:00 +20°C° 0 mm 1 m/S 748 mmHg 57%
    17:00 +19°C° 0 mm 1 m/S 748 mmHg 63%
    18:00 +16°C° 0 mm 1 m/S 748 mmHg 67%
    19:00 +14°C° 0 mm 1 m/S 748 mmHg 71%
    20:00 +12°C° 0 mm 1 m/S 749 mmHg 75%
    21:00 +12°C° 0 mm 1 m/S 749 mmHg 74%
    22:00 +12°C° 0 mm 1 m/S 749 mmHg 73%
    23:00 +12°C° 0 mm 1 m/S 749 mmHg 72%

    Morgen, 4 April, Samstag

    Zeit Temperatur Niederschläge Wind Luftdruck Luftfeuchtigkeit
    00:00 +10°C° 0 mm 2 m/S 749 mmHg 71%
    01:00 +10°C° 0 mm 2 m/S 748 mmHg 70%
    02:00 +10°C° 0 mm 2 m/S 748 mmHg 69%
    03:00 +10°C° 0 mm 2 m/S 748 mmHg 70%
    04:00 +10°C° 0 mm 2 m/S 748 mmHg 71%
    05:00 +10°C° 0 mm 2 m/S 747 mmHg 71%
    06:00 +12°C° 0 mm 3 m/S 747 mmHg 67%
    07:00 +14°C° 0 mm 3 m/S 747 mmHg 63%
    08:00 +17°C° 0 mm 4 m/S 747 mmHg 59%
    09:00 +18°C° 0 mm 4 m/S 747 mmHg 55%
    10:00 +19°C° 0 mm 5 m/S 747 mmHg 52%
    11:00 +20°C° 0 mm 6 m/S 747 mmHg 48%
    12:00 +20°C° 0 mm 6 m/S 747 mmHg 48%
    13:00 +20°C° 0 mm 5 m/S 746 mmHg 48%
    14:00 +19°C° 0 mm 5 m/S 746 mmHg 49%
    15:00 +19°C° 0 mm 5 m/S 746 mmHg 54%
    16:00 +18°C° 0 mm 4 m/S 746 mmHg 60%
    17:00 +17°C° 0 mm 4 m/S 746 mmHg 65%
    18:00 +16°C° 0.1 mm 3 m/S 746 mmHg 70%
    19:00 +14°C° 0.1 mm 3 m/S 747 mmHg 75%
    20:00 +14°C° 0.1 mm 3 m/S 747 mmHg 80%
    21:00 +14°C° 0 mm 3 m/S 747 mmHg 80%
    22:00 +14°C° 0 mm 3 m/S 747 mmHg 79%
    23:00 +13°C° 0 mm 3 m/S 747 mmHg 79%

    übermorgen, 5 April, Sonntag

    Zeit Temperatur Niederschläge Wind Luftdruck Luftfeuchtigkeit
    00:00 +13°C° 0.2 mm 3 m/S 747 mmHg 81%
    01:00 +13°C° 0.2 mm 3 m/S 746 mmHg 84%
    02:00 +13°C° 0.2 mm 3 m/S 746 mmHg 87%
    03:00 +13°C° 0.3 mm 3 m/S 746 mmHg 87%
    04:00 +13°C° 0.3 mm 3 m/S 746 mmHg 88%
    05:00 +13°C° 0.3 mm 3 m/S 746 mmHg 88%
    06:00 +13°C° 0.2 mm 3 m/S 746 mmHg 88%
    07:00 +13°C° 0.2 mm 4 m/S 746 mmHg 88%
    08:00 +14°C° 0.2 mm 4 m/S 746 mmHg 88%
    09:00 +14°C° 1 mm 4 m/S 746 mmHg 89%
    10:00 +14°C° 1 mm 4 m/S 746 mmHg 90%
    11:00 +14°C° 1 mm 4 m/S 746 mmHg 91%
    12:00 +14°C° 2.9 mm 4 m/S 746 mmHg 92%
    13:00 +14°C° 2.9 mm 4 m/S 746 mmHg 94%
    14:00 +16°C° 2.9 mm 3 m/S 746 mmHg 95%
    15:00 +16°C° 2.9 mm 3 m/S 746 mmHg 96%
    16:00 +16°C° 2.9 mm 3 m/S 747 mmHg 97%
    17:00 +15°C° 2.9 mm 2 m/S 747 mmHg 97%
    18:00 +15°C° 0.2 mm 2 m/S 748 mmHg 97%
    19:00 +14°C° 0.2 mm 2 m/S 749 mmHg 97%
    20:00 +13°C° 0.2 mm 2 m/S 749 mmHg 97%
    21:00 +13°C° 0.1 mm 1 m/S 750 mmHg 97%
    22:00 +13°C° 0.1 mm 1 m/S 750 mmHg 97%
    23:00 +13°C° 0.1 mm 1 m/S 751 mmHg 97%

    6 April, Montag

    Zeit Temperatur Niederschläge Wind Luftdruck Luftfeuchtigkeit
    00:00 +12°C° 0.1 mm 1 m/S 751 mmHg 96%
    01:00 +12°C° 0.1 mm 1 m/S 752 mmHg 95%
    02:00 +12°C° 0.1 mm 1 m/S 752 mmHg 94%
    03:00 +11°C° 0 mm 1 m/S 752 mmHg 94%
    04:00 +11°C° 0 mm 1 m/S 753 mmHg 93%
    05:00 +10°C° 0 mm 1 m/S 753 mmHg 92%
    06:00 +12°C° 0 mm 1 m/S 753 mmHg 86%
    07:00 +13°C° 0 mm 1 m/S 754 mmHg 80%
    08:00 +15°C° 0 mm 1 m/S 754 mmHg 75%
    09:00 +16°C° 0 mm 1 m/S 755 mmHg 66%
    10:00 +19°C° 0 mm 1 m/S 755 mmHg 57%
    11:00 +19°C° 0 mm 2 m/S 755 mmHg 48%
    12:00 +19°C° 0 mm 2 m/S 755 mmHg 48%
    13:00 +19°C° 0 mm 2 m/S 755 mmHg 48%
    14:00 +19°C° 0 mm 3 m/S 755 mmHg 48%
    15:00 +18°C° 0 mm 3 m/S 755 mmHg 53%
    16:00 +18°C° 0 mm 3 m/S 755 mmHg 58%
    17:00 +17°C° 0 mm 3 m/S 755 mmHg 63%
    18:00 +15°C° 0 mm 2 m/S 755 mmHg 68%
    19:00 +13°C° 0 mm 2 m/S 756 mmHg 73%
    20:00 +12°C° 0 mm 1 m/S 756 mmHg 78%
    21:00 +11°C° 0 mm 1 m/S 757 mmHg 78%
    22:00 +11°C° 0 mm 1 m/S 757 mmHg 78%
    23:00 +11°C° 0 mm 1 m/S 757 mmHg 78%

    7 April, Dienstag

    Zeit Temperatur Niederschläge Wind Luftdruck Luftfeuchtigkeit
    00:00 +10°C° 0 mm 1 m/S 757 mmHg 78%
    01:00 +10°C° 0 mm 1 m/S 757 mmHg 78%
    02:00 +10°C° 0 mm 1 m/S 756 mmHg 78%
    03:00 +10°C° 0 mm 1 m/S 756 mmHg 78%
    04:00 +10°C° 0 mm 1 m/S 757 mmHg 79%
    05:00 +10°C° 0 mm 1 m/S 757 mmHg 79%
    06:00 +12°C° 0 mm 1 m/S 757 mmHg 73%
    07:00 +14°C° 0 mm 1 m/S 757 mmHg 67%
    08:00 +18°C° 0 mm 1 m/S 757 mmHg 61%
    09:00 +19°C° 0 mm 1 m/S 757 mmHg 56%
    10:00 +20°C° 0 mm 2 m/S 757 mmHg 51%
    11:00 +23°C° 0 mm 2 m/S 757 mmHg 47%
    12:00 +23°C° 0 mm 2 m/S 756 mmHg 47%
    13:00 +23°C° 0 mm 2 m/S 756 mmHg 46%
    14:00 +23°C° 0 mm 2 m/S 756 mmHg 46%
    15:00 +21°C° 0 mm 2 m/S 755 mmHg 52%
    16:00 +21°C° 0 mm 1 m/S 755 mmHg 58%
    17:00 +20°C° 0 mm 1 m/S 755 mmHg 64%
    18:00 +18°C° 0 mm 1 m/S 755 mmHg 67%
    19:00 +16°C° 0 mm 1 m/S 756 mmHg 71%
    20:00 +13°C° 0 mm 0 m/S 756 mmHg 74%
    21:00 +14°C° 0 mm 1 m/S 756 mmHg 75%
    22:00 +14°C° 0 mm 1 m/S 756 mmHg 75%
    23:00 +14°C° 0 mm 1 m/S 756 mmHg 76%

    8 April, Mittwoch

    Zeit Temperatur Niederschläge Wind Luftdruck Luftfeuchtigkeit
    00:00 +14°C° 0 mm 1 m/S 756 mmHg 76%
    01:00 +13°C° 0 mm 1 m/S 756 mmHg 77%
    02:00 +13°C° 0 mm 1 m/S 755 mmHg 78%
    03:00 +13°C° 0 mm 1 m/S 756 mmHg 78%
    04:00 +14°C° 0 mm 1 m/S 756 mmHg 78%
    05:00 +14°C° 0 mm 1 m/S 756 mmHg 78%
    06:00 +15°C° 0 mm 1 m/S 756 mmHg 76%
    07:00 +16°C° 0 mm 1 m/S 756 mmHg 75%
    08:00 +16°C° 0 mm 1 m/S 756 mmHg 74%
    09:00 +18°C° 0.1 mm 1 m/S 756 mmHg 75%
    10:00 +18°C° 0.1 mm 1 m/S 756 mmHg 76%
    11:00 +18°C° 0.1 mm 1 m/S 756 mmHg 77%
    12:00 +18°C° 0.2 mm 1 m/S 756 mmHg 82%
    13:00 +16°C° 0.2 mm 1 m/S 756 mmHg 86%
    14:00 +16°C° 0.2 mm 1 m/S 756 mmHg 90%
    15:00 +16°C° 0.3 mm 1 m/S 756 mmHg 91%
    16:00 +16°C° 0.3 mm 1 m/S 756 mmHg 92%
    17:00 +15°C° 0.3 mm 1 m/S 756 mmHg 93%
    18:00 +15°C° 0 mm 1 m/S 756 mmHg 92%
    19:00 +15°C° 0 mm 1 m/S 756 mmHg 91%
    20:00 +15°C° 0 mm 1 m/S 756 mmHg 90%
    21:00 +15°C° 0 mm 1 m/S 756 mmHg 90%
    22:00 +15°C° 0 mm 1 m/S 756 mmHg 90%
    23:00 +14°C° 0 mm 1 m/S 757 mmHg 90%
    Mehr zeigen